Location: Pl�tzky
(52.0521°N, 11.8020°E)
Time: 23:45:43
(UTC+00:00)

CZ-4 R/B - Pass Details

Date: 22 November 2019
Orbit: 530 x 601 km, 97.7° (Epoch: 14 December)

Event Time Altitude Azimuth Distance (km) Brightness Sun altitude
Rises 18:34:31 0° 207° (SSW) 2,790 5.2 -30.4°
Reaches altitude 10° 18:37:19 10° 227° (SW) 1,883 4.5 -30.8°
Maximum altitude 18:40:02 17° 269° (W) 1,464 4.2 -31.2°
Drops below altitude 10° 18:42:45 10° 312° (NW) 1,864 4.6 -31.7°
Sets 18:45:30 0° 333° (NNW) 2,751 5.3 -32.1°
